Weather History for Salina, KS

Change the Weather History Date:

Tuesday, June 25, 2013

  Actual Average Record
Temperature  
Mean Temperature 89 °F 79 °F  
Max Temperature 102 °F 91 °F 114 °F (1911)
Min Temperature 76 °F 67 °F 50 °F (1958)
Degree Days  
Heating Degree Days 0 0  
Month to date heating degree days 7 5  
Since 1 June heating degree days 7 5  
Since 1 July heating degree days 4924 4869  
Cooling Degree Days 24 14  
Month to date cooling degree days 305 254  
Year to date cooling degree days 446 382  
Since 1 June cooling degree days 305 254  
Growing Degree Days 38 (Base 50)    
Moisture  
Dew Point 66 °F    
Average Humidity 51    
Maximum Humidity 74    
Minimum Humidity 27    
Precipitation  
Precipitation 0.05 in 0.14 in 1.71 in (2009)
Month to date precipitation 2.24 3.48  
Year to date precipitation 15.48 15.47  
Sea Level Pressure  
Sea Level Pressure 29.73 in    
Wind  
Wind Speed 18 mph (South)    
Max Wind Speed 35 mph    
Max Gust Speed 45 mph    
Visibility 10 miles    
Events Rain , Thunderstorm    
T = Trace of Precipitation, MM = Missing Value Source: NWS Daily Summary

Daily Weather History Graph

Daily Weather History Graph

Search for Another Location

Airport:

Trip Planner

Search our weather history database for the weather conditions in past years. The results will help you decide how hot, cold, wet, or windy it might be!

Date:

Astronomy

Jun. 25, 2013 Rise Set
Actual Time 6:06 AM CDT 8:59 PM CDT
Civil Twilight 5:34 AM CDT 9:31 PM CDT
Nautical Twilight 4:54 AM CDT 10:11 PM CDT
Astronomical Twilight 4:08 AM CDT 10:58 PM CDT
Moon 10:48 PM CDT (6/25) 8:46 AM CDT (6/25)
Length of Visible Light 15h 56m
Length of Day
14h 52m
Waning Gibbous, 92% of the Moon is Illuminated
Jun 25
Waning Gibbous
Jun 29
Last Quarter
Jul 8
New
Jul 15
First Quarter
Jul 22
Full

Hourly Weather History & Observations

Time (CDT) Temp. Heat Index Dew Point Humidity Pressure Visibility Wind Dir Wind Speed Gust Speed Precip Events Conditions
12:46 AM 78.8 °F - 66.2 °F 65% 29.80 in 10.0 mi SW 20.7 mph 27.6 mph 0.00 in Rain , Thunderstorm Light Rain
12:53 AM 80.1 °F 82.3 °F 66.9 °F 64% 29.76 in 10.0 mi SSW 27.6 mph 35.7 mph 0.00 in Rain , Thunderstorm Light Rain
1:11 AM 77.0 °F - 68.0 °F 74% 29.80 in 8.0 mi South 29.9 mph 39.1 mph 0.01 in Rain , Thunderstorm Light Thunderstorms and Rain
1:33 AM 77.0 °F - 69.8 °F 78% 29.81 in 8.0 mi South 31.1 mph 44.9 mph 0.05 in Thunderstorm Thunderstorm
1:53 AM 77.0 °F - 69.1 °F 76% 29.77 in 10.0 mi SSE 21.9 mph 31.1 mph 0.05 in   Mostly Cloudy
2:02 AM 77.0 °F - 69.8 °F 78% 29.81 in 10.0 mi SSE 21.9 mph 29.9 mph N/A Thunderstorm Mostly Cloudy
2:17 AM 77.0 °F - 69.8 °F 78% 29.81 in 10.0 mi SSE 19.6 mph 29.9 mph N/A   Scattered Clouds
2:25 AM 77.0 °F - 69.8 °F 78% 29.81 in 10.0 mi SSE 17.3 mph - N/A Thunderstorm Scattered Clouds
2:40 AM 78.8 °F - 68.0 °F 69% 29.80 in 10.0 mi SSE 21.9 mph - N/A   Mostly Cloudy
2:50 AM 78.8 °F - 68.0 °F 69% 29.80 in 10.0 mi SSE 19.6 mph 29.9 mph N/A Thunderstorm Mostly Cloudy
2:53 AM 78.1 °F - 68.0 °F 71% 29.75 in 10.0 mi SSE 19.6 mph 29.9 mph N/A Thunderstorm Mostly Cloudy
3:17 AM 78.8 °F - 68.0 °F 69% 29.81 in 10.0 mi SSE 17.3 mph 24.2 mph N/A   Overcast
3:38 AM 78.8 °F - 68.0 °F 69% 29.81 in 10.0 mi South 16.1 mph 21.9 mph N/A Thunderstorm Overcast
3:53 AM 78.1 °F - 68.0 °F 71% 29.81 in 10.0 mi NNW 15.0 mph 18.4 mph N/A Thunderstorm Overcast
4:10 AM 78.8 °F - 66.2 °F 65% 29.83 in 10.0 mi ENE 17.3 mph 40.3 mph N/A Thunderstorm Overcast
4:20 AM 78.8 °F - 66.2 °F 65% 29.81 in 10.0 mi SE 17.3 mph 23.0 mph N/A Thunderstorm Mostly Cloudy
4:34 AM 78.8 °F - 66.2 °F 65% 29.83 in 10.0 mi ESE 10.4 mph - N/A   Partly Cloudy
4:53 AM 79.0 °F - 66.0 °F 64% 29.78 in 10.0 mi East 11.5 mph 17.3 mph N/A   Mostly Cloudy
5:53 AM 77.0 °F - 66.9 °F 71% 29.75 in 10.0 mi ESE 13.8 mph - N/A   Clear
6:53 AM 75.9 °F - 66.0 °F 71% 29.73 in 10.0 mi SSE 15.0 mph - N/A   Clear
7:53 AM 79.0 °F - 66.0 °F 64% 29.70 in 10.0 mi SSE 23.0 mph 31.1 mph N/A   Clear
8:53 AM 81.0 °F 83.0 °F 66.0 °F 60% 29.70 in 10.0 mi South 18.4 mph 32.2 mph N/A   Clear
9:53 AM 84.9 °F 87.1 °F 66.0 °F 53% 29.68 in 10.0 mi South 20.7 mph 29.9 mph N/A   Clear
10:53 AM 88.0 °F 90.3 °F 66.0 °F 48% 29.66 in 10.0 mi South 21.9 mph 38.0 mph N/A   Clear
11:53 AM 91.0 °F 93.0 °F 64.9 °F 42% 29.67 in 10.0 mi South 19.6 mph 34.5 mph N/A   Clear
12:53 PM 90.0 °F 92.8 °F 66.9 °F 46% 29.66 in 10.0 mi South 26.5 mph 34.5 mph N/A   Clear
1:53 PM 93.9 °F 98.6 °F 68.0 °F 43% 29.62 in 10.0 mi South 24.2 mph 33.4 mph N/A   Clear
2:53 PM 98.1 °F 101.2 °F 64.9 °F 34% 29.60 in 10.0 mi South 31.1 mph 38.0 mph N/A   Clear
3:53 PM 99.0 °F 101.7 °F 64.0 °F 32% 29.59 in 10.0 mi SSW 28.8 mph 38.0 mph N/A   Clear
4:53 PM 100.9 °F 102.7 °F 62.1 °F 28% 29.56 in 10.0 mi South 25.3 mph 39.1 mph N/A   Clear
5:53 PM 102.0 °F 104.6 °F 63.0 °F 28% 29.56 in 10.0 mi SSW 24.2 mph 38.0 mph N/A   Clear
6:53 PM 100.0 °F 101.8 °F 62.1 °F 29% 29.58 in 10.0 mi WSW 12.7 mph - N/A   Clear
7:53 PM 93.9 °F 96.1 °F 64.9 °F 38% 29.62 in 6.0 mi West 10.4 mph - N/A   Haze
8:53 PM 89.1 °F 89.0 °F 61.0 °F 39% 29.64 in 10.0 mi West 10.4 mph - N/A   Clear
9:53 PM 80.1 °F 81.5 °F 63.0 °F 56% 29.68 in 10.0 mi South 6.9 mph - N/A   Clear
10:53 PM 84.9 °F 85.9 °F 63.0 °F 48% 29.73 in 10.0 mi SSW 12.7 mph - N/A   Clear
11:53 PM 82.0 °F 85.5 °F 69.1 °F 65% 29.73 in 10.0 mi SSW 12.7 mph - N/A   Clear